This demonstration page uses our WeatherBlox Daily Observations layout. Learn more.

Left ArrowRight Arrow

40.92945, -100.16068

Hourly Observations for February 4, 2018

Temp ( °F °C ) Dew Point ( °F °C ) Humidity (%) Winds ( mph kmh ) Pressure ( in mb ) Visibility ( mi km ) Precip ( " mm )
12:15 am 00:15 Cloudy 23 -5 16 -8.9 74 74 N 24 39 30.21 1023 10 16 N/A
12:35 am 00:35 Cloudy 21 -6.2 14 -10.1 74 74 N 21 33 30.21 1023 7 11 N/A
12:55 am 00:55 Cloudy 20 -6.7 12 -11 72 72 N 21 33 30.21 1023 10 16 N/A
1:15 am 01:15 Cloudy 19 -7 12 -11 73 73 N 18 30 30.21 1023 10 16 N/A
1:35 am 01:35 Cloudy 18 -7.7 11 -11.6 74 74 N 21 33 30.21 1023 10 16 N/A
1:55 am 01:55 Cloudy 17 -8.2 10 -12.2 73 73 N 18 30 30.24 1024 10 16 N/A
2:15 am 02:15 Windy with Snow Likely 16 -9 8 -13.1 72 72 N 22 35 30.27 1025 7 11 N/A
2:35 am 02:35 Windy with Snow Likely 16 -9 8 -13.1 72 72 N 23 37 30.30 1026 7 11 N/A
2:55 am 02:55 Cloudy 15 -9.5 8 -13.5 73 73 N 20 31 30.30 1026 10 16 N/A
3:15 am 03:15 Cloudy 15 -9.6 7 -13.8 72 72 N 20 31 30.30 1026 10 16 N/A
3:35 am 03:35 Windy with Snow Likely 14 -10.1 7 -13.7 75 75 NNE 20 31 30.33 1027 3 5 N/A
3:55 am 03:55 Windy with Snow Likely 12 -11.1 6 -14.6 76 76 NNE 21 33 30.33 1027 2 3 N/A
4:15 am 04:15 Windy with Snow Likely 11 -11.5 6 -14.5 79 79 N 23 37 30.36 1028 2 2 N/A
4:35 am 04:35 Cloudy with Heavy Snow 10 -12.2 5 -15 80 80 N 25 41 30.36 1028 0 0 N/A
4:55 am 04:55 Cloudy with Snow 9 -12.6 5 -15.2 81 81 N 23 37 30.42 1030 1 1 N/A
5:15 am 05:15 Windy with Snow Likely 9 -13 3 -15.9 79 79 N 24 39 30.42 1030 2 3 N/A
5:35 am 05:35 Cloudy with Light Snow 8 -13.1 3 -16 79 79 N 17 28 30.45 1031 2 2 N/A
5:55 am 05:55 Cloudy with Light Snow 8 -13.6 2 -16.5 79 79 N 18 30 30.48 1032 1 2 N/A
6:15 am 06:15 Cloudy with Light Snow 7 -13.7 3 -16.3 81 81 N 16 26 30.48 1032 1 2 N/A
6:35 am 06:35 Cloudy with Snow 7 -14 2 -16.8 80 80 N 21 33 30.53 1034 1 2 N/A
6:55 am 06:55 Cloudy with Snow 6 -14.5 1 -17.5 78 78 N 22 35 30.53 1034 1 1 N/A
7:15 am 07:15 Cloudy with Light Snow 6 -14.5 1 -17.3 79 79 N 16 26 30.53 1034 1 2 N/A
7:35 am 07:35 Windy with Snow Likely 5 -14.9 N/A 79 79 N 22 35 30.56 1035 1 2 N/A
7:55 am 07:55 Windy with Snow Likely 5 -14.9 -1 -18.1 77 77 N 25 41 30.59 1036 2 2 N/A
8:15 am 08:15 Cloudy with Snow 5 -15.1 N/A 79 79 N 18 30 30.62 1037 1 1 N/A
8:35 am 08:35 Cloudy with Snow 5 -15.2 N/A 79 79 NNW 16 26 30.62 1037 0 0 N/A
8:55 am 08:55 Cloudy with Light Snow 5 -15.2 N/A 79 79 N 14 22 30.62 1037 1 1 N/A
9:15 am 09:15 Cloudy with Light Snow 5 -15 -1 -18.2 77 77 NNW 12 19 30.62 1037 2 3 N/A
9:35 am 09:35 Cloudy with Light Snow 6 -14.6 N/A 76 76 NNW 14 22 30.62 1037 10 16 0.02 0.51
9:55 am 09:55 Cloudy with Light Snow 6 -14.7 -3 -19.2 69 69 N 17 28 30.62 1037 7 11 0.02 0.51
10:15 am 10:15 Partly Cloudy 6 -14.5 -3 -19.6 65 65 NNW 17 28 30.65 1038 10 16 N/A
10:35 am 10:35 Mostly Cloudy 6 -14.3 -4 -19.9 63 63 N 16 26 30.65 1038 10 16 N/A
10:55 am 10:55 Cloudy 7 -14 -3 -19.6 63 63 N 15 24 30.65 1038 10 16 N/A
11:15 am 11:15 Cloudy 7 -13.8 -3 -19.4 63 63 N 13 20 30.65 1038 10 16 N/A
11:35 am 11:35 Cloudy 7 -13.7 -3 -19.5 62 62 N 13 20 30.65 1038 10 16 N/A
11:55 am 11:55 Cloudy 8 -13.6 -3 -19.3 62 62 NNW 12 19 30.65 1038 10 16 N/A
12:15 pm 12:15 Partly Cloudy 8 -13.4 -3 -19.4 61 61 NNW 10 17 30.65 1038 10 16 N/A
12:35 pm 12:35 Sunny 8 -13.4 -3 -19.5 60 60 NNW 16 26 30.65 1038 10 16 N/A
12:55 pm 12:55 Sunny 8 -13.1 -3 -19.2 61 61 NNW 12 19 30.65 1038 10 16 N/A
1:15 pm 13:15 Sunny 9 -13 -3 -19.2 60 60 NNW 14 22 30.59 1036 10 16 N/A
1:35 pm 13:35 Sunny 8 -13.1 -3 -19.5 59 59 NNW 10 17 30.59 1036 10 16 N/A
1:55 pm 13:55 Partly Cloudy 9 -13 -2 -19.1 61 61 NNW 7 11 30.56 1035 10 16 N/A
2:15 pm 14:15 Partly Cloudy 9 -12.8 -1 -18.6 62 62 WNW 9 15 30.56 1035 10 16 N/A
2:35 pm 14:35 Sunny 9 -13 -3 -19.3 60 60 NW 9 15 30.56 1035 10 16 N/A
2:55 pm 14:55 Sunny 9 -13 -3 -19.5 59 59 NW 7 11 30.56 1035 10 16 N/A
3:15 pm 15:15 Sunny 10 -12.5 -2 -19.1 58 58 NW 8 13 30.56 1035 10 16 N/A
3:35 pm 15:35 Sunny 8 -13.1 -3 -19.3 60 60 WNW 6 9 30.53 1034 10 16 N/A
3:55 pm 15:55 Sunny 10 -12.5 -2 -18.9 59 59 NW 6 9 30.53 1034 10 16 N/A
4:15 pm 16:15 Sunny 10 -12.4 -2 -18.9 59 59 WNW 8 13 30.53 1034 10 16 N/A
4:35 pm 16:35 Sunny 10 -12.5 -3 -19.2 58 58 WNW 3 6 30.53 1034 10 16 N/A
4:55 pm 16:55 Sunny 10 -12.5 -3 -19.3 57 57 WNW 3 6 30.53 1034 10 16 N/A
5:15 pm 17:15 Sunny 9 -12.6 -2 -19.1 59 59 WNW 3 6 30.50 1033 10 16 N/A
5:35 pm 17:35 Sunny 10 -12.5 -3 -19.3 57 57 N N/A 30.50 1033 10 16 N/A
5:55 pm 17:55 Sunny 9 -12.7 -2 -19.1 59 59 N N/A 30.50 1033 10 16 N/A
6:15 pm 18:15 Clear 9 -12.8 -2 -19 60 60 N N/A 30.50 1033 10 16 N/A
6:35 pm 18:35 Clear 9 -13 N/A 68 68 S 3 6 30.50 1033 10 16 N/A
6:55 pm 18:55 Clear 8 -13.1 -1 -18.1 66 66 SSE 6 9 30.48 1032 10 16 N/A
7:15 pm 19:15 Clear 7 -13.7 -1 -18.2 69 69 SSE 6 9 30.48 1032 10 16 N/A
7:35 pm 19:35 Clear 7 -13.7 -1 -18.5 67 67 SSE 6 9 30.48 1032 10 16 N/A
7:55 pm 19:55 Partly Cloudy 6 -14.4 -1 -18.4 72 72 S 5 7 30.50 1033 10 16 N/A
8:15 pm 20:15 Partly Cloudy 6 -14.3 -1 -18.5 71 71 S 5 7 30.45 1031 10 16 N/A
8:35 pm 20:35 Mostly Cloudy 5 -15 -2 -18.8 73 73 SSE 7 11 30.48 1032 10 16 N/A
8:55 pm 20:55 Partly Cloudy 5 -15.2 -2 -19 73 73 S 7 11 30.48 1032 10 16 N/A
9:15 pm 21:15 Clear 7 -14.1 -1 -18.1 72 72 SSW 9 15 30.42 1030 10 16 N/A
9:35 pm 21:35 Clear 7 -13.7 N/A 70 70 S 13 20 30.42 1030 10 16 N/A
9:55 pm 21:55 Partly Cloudy 8 -13.4 N/A 70 70 S 14 22 30.39 1029 10 16 N/A
10:15 pm 22:15 Mostly Cloudy 9 -13 1 -17.4 70 70 S 14 22 30.39 1029 10 16 N/A
10:35 pm 22:35 Mostly Cloudy 9 -13 1 -17.2 71 71 S 10 17 30.39 1029 10 16 N/A
10:55 pm 22:55 Partly Cloudy 8 -13.2 1 -17.5 70 70 S 12 19 30.36 1028 10 16 N/A
11:15 pm 23:15 Partly Cloudy 8 -13.2 N/A 68 68 S 13 20 30.36 1028 10 16 N/A
11:35 pm 23:35 Partly Cloudy 8 -13.4 N/A 69 69 S 13 20 30.33 1027 10 16 N/A
11:55 pm 23:55 Partly Cloudy 8 -13.6 N/A 70 70 S 10 17 30.33 1027 10 16 N/A

Powered by AerisWeather